Regional Weather Roundup
Issued by NWS Upton, NY

Current Version | Previous Version | Text Only | Print | Product List | Glossary Off
Versions: 1 2 3 4 5 6 7 8 9 10 11 12 13 14 15 16 17 18 19 20 21 22 23 24 25 26 27 28 29 30 31 32 33 34 35 36 37 38 39 40 41 42 43 44 45 46 47 48 49 50
618 ASUS41 KOKX 161508 RWROKX REGIONAL WEATHER ROUNDUP NATIONAL WEATHER SERVICE NEW YORK NY 1000 AM EST MON JAN 16 2017 NOTE: "FAIR" INDICATES FEW OR NO CLOUDS BELOW 12,000 FEET WITH NO SIGNIFICANT WEATHER AND/OR OBSTRUCTIONS TO VISIBILITY. NYZ071-072-176-178-NJZ106-104-161600- NEW YORK CITY METRO AREA CITY SKY/WX TMP DP RH WIND PRES REMARKS Central Park SUNNY 34 20 56 CALM 30.49S Wall St Helipt SUNNY 35 23 61 W5 30.49S WCI 31 Bronx Bot Gard NOT AVBL LaGuardia APRT MOSUNNY 36 20 52 NE5 30.47S WCI 32 Kennedy INTL MOSUNNY 37 17 44 CALM 30.49S Breezy Point N/A 34 N/A N/A W1 N/A Newark/Liberty MOSUNNY 35 21 56 CALM 30.48S Teterboro SUNNY 32 20 61 CALM 30.47S $$ NYZ177-179-078>081-161600- LONG ISLAND NEW YORK CITY SKY/WX TMP DP RH WIND PRES REMARKS Jones Beach N/A 32 N/A N/A MISG N/A Matinecock PT NOT AVBL Farmingdale SUNNY 34 22 61 W3 30.47S MacArthur/ISP PTSUNNY 34 24 67 VRB3 30.46S Shirley SUNNY 35 24 64 W3 30.47S Westhampton SUNNY 35 23 61 SW3 30.47S Southampton NOT AVBL Bridgehampton NOT AVBL East Hampton N/A 35 19 52 SW3 30.45S Montauk N/A 38 23 55 CALM 30.46R $$ NYZ052-065-067-161600- HUDSON VALLEY CITY SKY/WX TMP DP RH WIND PRES REMARKS White Plains SUNNY 32 16 51 SW3 30.44S Newburgh SUNNY 27 21 80 SW6 30.45 WCI 20 Montgomery SUNNY 28 21 75 SW7 30.43S WCI 21 Poughkeepsie SUNNY 26 20 77 SW3 30.45S Albany MOSUNNY 26 17 68 S8 30.43S WCI 18 $$ NJZ001-105-106-008-010-013-015-019>022-104-161600- NEW JERSEY CITY SKY/WX TMP DP RH WIND PRES REMARKS Newark/Liberty MOSUNNY 35 21 56 CALM 30.48S Teterboro SUNNY 32 20 61 CALM 30.47S Caldwell SUNNY 28 20 71 CALM 30.48S Somerville SUNNY 29 21 72 CALM 30.47R Linden N/A 32 20 60 CALM 30.49S Sussex CLOUDY 25 22 88 VRB3 30.44S Andover N/A 26 21 81 CALM 30.45S Trenton SUNNY 32 22 66 CALM 30.47S Millville SUNNY 33 26 75 CALM 30.49R Atlantic City CLOUDY 33 23 66 CALM 30.49R Wrightstown SUNNY 33 23 69 CALM 30.45S Toms River SUNNY 33 24 69 CALM 30.49R Belmar SUNNY 34 25 69 NW3 30.48S $$ PAZ047>061-062-071-161600- EASTERN PENNSYLVANIA CITY SKY/WX TMP DP RH WIND PRES REMARKS Philadelphia CLOUDY 33 22 63 CALM 30.50R Allentown SUNNY 25 20 81 CALM 30.48R Scranton SUNNY 22 16 78 CALM 30.42R HAZE $$ CTZ002-004>006-009-010-012-RIZ004-006-007-MAZ004-011-015-161600- SOUTHERN NEW ENGLAND IN CT CITY SKY/WX TMP DP RH WIND PRES REMARKS Bradley INTL PTSUNNY 28 19 69 VRB3 30.44F Hartford SUNNY 29 19 66 CALM 30.45F Danbury SUNNY 29 20 69 CALM 30.45S Wtrbury/Oxford MOSUNNY 28 18 64 CALM 30.44R Bridgeport SUNNY 33 21 61 CALM 30.47S Meriden SUNNY 30 20 66 S3 30.46R New Haven MOSUNNY 31 22 69 CALM 30.46R Chester N/A 32 14 47 SW3 30.44R Groton SUNNY 34 21 59 VRB3 30.46R Wilimantic SUNNY 25 18 74 CALM 30.45S IN RI CITY SKY/WX TMP DP RH WIND PRES REMARKS Providence MOSUNNY 31 18 58 CALM 30.45R Block Island NOT AVBL Westerly SUNNY 34 25 69 CALM 30.46R IN MA CITY SKY/WX TMP DP RH WIND PRES REMARKS Boston MOSUNNY 33 17 51 SW12 30.43S WCI 24 Worcester SUNNY 27 13 55 W15 30.36S WCI 15 Westfield SUNNY 27 20 75 S3 30.42F Provincetown SUNNY 37 21 52 SW12 30.43 WCI 29 Nantucket SUNNY 37 19 48 S7 30.45R WCI 32 $$ ANZ330-335-338-340-345-350-353-355-161600- COASTAL MARINE OBSERVATIONS STATION/POSITION TIME SKY/WX TEMP WIND PRES VSBY WAVE AIR SEA DIR/SP/G HT/PER (UTC) (F) (DEG/KT/KT) (MB) (MI) (FT/S) NY HARB ENTRANCE 1350 36 43 60/ 2/ 4 1031.8 2/10 20 S FIRE ISLAND 1350 37 45 30/ 2/ 6 1031.2 2/ 9 GREAT SOUTH BAY NOT AVBL 23 SSW MONTAUK P 1350 40 47 260/ 2/ 4 1031.6 2/10 15 E BARNEGAT LI 1430 46 N/A 2/11 HUDSON CANYON 1350 47 52 1031.2 2/ 9 KINGS POINT 1442 31 37 1031.9 EXECUTION ROCKS 1445 42 CALM / 2 N/A CENTRAL LI SOUND 1415 32 300/ 2/ 4 N/A 0 EASTERN LI SOUND NOT AVBL ROBBINS REEF 1442 31 290/ 3/ 4 1032.4 $$ >>>>>>>>>>>>>>>>>>>>>>>>>>>> KEY <<<<<<<<<<<<<<<<<<<<<<<<<<< > < > SKY/WX - Sky Condition/Present Weather < > TMP - Temperature in Fahrenheit < > DP - Dew Point in Fahrenheit < > RH - Relative Humidity in Percent < > WIND - Direction (from) and Speed in MPH < > PRES - Mean Sea Level Pressure (inches of Hg) < > WCI - Wind Chill Index < > VSB - VISIBILITY IN MILES < > HX - HEAT INDEX < > TC - TEMPERATURE IN CELSIUS < > VRB - VARIABLE WIND DIRECTION < > < >>>>>>>>>>>>>>>>>>>>>>>>>>>> KEY <<<<<<<<<<<<<<<<<<<<<<<<<<<

USA.gov is the U.S. government's official web portal to all federal, state and local government web resources and services.